contact:dominique.lefevre@mio.osupytheas.fr, maurice.libes@osupytheas.fr, didier.mallarino@osupytheas.fr
Project:EMSO http://www.emso-fr.org/EMSO-France
Depth: 2436.0 m
Title:EMSO Ligure Ouest : Data MII capteur AQUADOPP
Date,Latitude,Longitude,X_East,Y_North,Z_Up,Amplitude_X,Amplitude_Y,Amplitude_Z,Batterie,SoundSpeed,Heading,Pitch,Roll,Pressure,TIS,Speed,Direction
, degrees North, degrees East, m.s-1, m.s-1,m.s-1, 1, 1, 1, Volt, m.s-1, degree, degree, degree, dbar, degree_C, m.s-1, degree
2022-09-09T19:04:02,42.805,6.029,-0.001,0.001,-0.018,102.0,100.0,100.0,13.4,1505.1,323.6,-0.8,1.8,2471.134,13.27,0.001,315.0
2022-09-09T19:07:03,42.805,6.029,-0.013,0.011,-0.022,100.0,100.0,100.0,13.3,1505.2,329.4,-0.8,1.8,2471.047,13.28,0.017,310.2
2022-09-09T19:10:03,42.805,6.029,0.011,-0.001,0.011,100.0,101.0,100.0,13.4,1505.2,320.7,-0.8,1.8,2470.982,13.28,0.011,95.2
2022-09-09T19:13:03,42.805,6.029,-0.015,0.003,-0.021,102.0,102.0,100.0,13.4,1505.2,324.1,-0.8,1.8,2470.919,13.28,0.015,281.3
2022-09-09T19:16:03,42.805,6.029,0.011,-0.005,-0.016,101.0,101.0,101.0,13.3,1505.2,323.7,-0.7,1.8,2470.807,13.28,0.012,114.4
2022-09-09T19:19:03,42.805,6.029,-0.024,0.006,-0.055,101.0,101.0,101.0,13.4,1505.2,327.9,-0.8,1.8,2470.834,13.28,0.024,284.0
2022-09-09T19:22:03,42.805,6.029,-0.014,-0.019,-0.019,101.0,101.0,101.0,13.4,1505.2,329.7,-0.8,1.8,2470.781,13.29,0.023,216.4
2022-09-09T19:25:03,42.805,6.029,-0.021,0.01,-0.013,101.0,102.0,100.0,13.4,1505.2,330.5,-0.8,1.8,2470.775,13.29,0.023,295.5
2022-09-09T19:28:03,42.805,6.029,0.015,-0.001,-0.035,101.0,101.0,103.0,13.3,1505.2,326.9,-0.7,1.8,2470.757,13.29,0.015,93.8
2022-09-09T19:31:03,42.805,6.029,-0.009,0.003,-0.006,101.0,102.0,101.0,13.4,1505.2,327.0,-0.8,1.8,2470.728,13.29,0.009,288.4
2022-09-09T19:34:03,42.805,6.029,0.012,-0.012,0.0,101.0,103.0,101.0,13.4,1505.2,328.9,-0.8,1.8,2470.757,13.29,0.016,135.0
2022-09-09T19:37:03,42.805,6.029,-0.015,0.0,-0.027,101.0,101.0,101.0,13.3,1505.2,332.8,-0.8,1.8,2470.749,13.29,0.015,270.0
2022-09-09T19:40:03,42.805,6.029,-0.004,0.008,0.037,100.0,102.0,100.0,13.3,1505.2,327.1,-0.7,1.8,2470.749,13.29,0.008,333.4
2022-09-09T19:43:03,42.805,6.029,-0.016,-0.004,-0.009,101.0,102.0,100.0,13.3,1505.2,333.4,-0.7,1.8,2470.757,13.29,0.016,256.0
2022-09-09T19:46:03,42.805,6.029,-0.008,0.01,0.008,101.0,101.0,102.0,13.4,1505.2,327.6,-0.8,1.8,2470.764,13.29,0.012,321.3
2022-09-09T19:49:03,42.805,6.029,0.015,-0.005,0.003,101.0,102.0,101.0,13.4,1505.2,329.1,-0.8,1.8,2470.765,13.29,0.015,108.4
2022-09-09T19:52:03,42.805,6.029,-0.017,-0.001,-0.023,101.0,100.0,100.0,13.4,1505.2,331.0,-0.8,1.9,2470.818,13.29,0.017,266.6
2022-09-09T19:55:03,42.805,6.029,0.008,-0.003,-0.036,102.0,102.0,101.0,13.3,1505.2,332.5,-0.7,1.8,2470.759,13.29,0.008,110.6
2022-09-09T19:58:03,42.805,6.029,0.008,0.008,0.021,102.0,100.0,101.0,13.4,1505.2,328.5,-0.8,1.8,2470.792,13.29,0.011,45.0
2022-09-09T20:04:03,42.805,6.029,0.0,0.008,0.003,101.0,101.0,100.0,13.4,1505.2,325.2,-0.8,1.8,2470.83,13.28,0.008,0.0
2022-09-09T20:07:03,42.805,6.029,-0.004,0.004,-0.012,101.0,101.0,102.0,13.4,1505.2,324.2,-0.8,1.8,2470.872,13.28,0.005,315.0
2022-09-09T20:10:03,42.805,6.029,0.005,0.01,0.011,102.0,102.0,100.0,13.3,1505.2,328.6,-0.8,1.8,2470.858,13.29,0.011,26.6
2022-09-09T20:13:03,42.805,6.029,0.0,-0.007,-0.02,101.0,101.0,100.0,13.4,1505.2,326.3,-0.8,1.8,2470.805,13.29,0.007,180.0
2022-09-09T20:16:03,42.805,6.029,-0.015,0.009,-0.032,101.0,100.0,101.0,13.4,1505.2,333.7,-0.8,1.8,2470.838,13.29,0.017,301.0
2022-09-09T20:19:03,42.805,6.029,-0.015,0.019,-0.003,100.0,100.0,101.0,13.4,1505.2,316.9,-0.8,1.8,2470.846,13.29,0.024,321.7
2022-09-09T20:22:03,42.805,6.029,0.003,-0.012,-0.006,99.0,102.0,101.0,13.4,1505.2,329.0,-0.8,1.8,2470.86,13.29,0.012,166.0
2022-09-09T20:25:03,42.805,6.029,0.022,-0.014,-0.002,101.0,101.0,100.0,13.4,1505.2,329.6,-0.7,1.8,2470.819,13.29,0.026,122.5
2022-09-09T20:28:03,42.805,6.029,-0.005,-0.007,-0.02,101.0,101.0,101.0,13.4,1505.2,328.9,-0.8,1.8,2470.8,13.29,0.008,215.5
2022-09-09T20:31:03,42.805,6.029,0.004,-0.023,-0.046,100.0,102.0,100.0,13.4,1505.2,326.9,-0.7,1.8,2470.805,13.29,0.023,170.1
2022-09-09T20:34:03,42.805,6.029,-0.011,0.014,-0.013,101.0,101.0,101.0,13.4,1505.2,330.0,-0.8,1.8,2470.77,13.29,0.017,321.8
2022-09-09T20:37:03,42.805,6.029,0.011,0.009,-0.017,101.0,100.0,100.0,13.4,1505.2,322.1,-0.8,1.8,2470.84,13.29,0.014,50.7
2022-09-09T20:40:03,42.805,6.029,-0.005,0.011,-0.032,100.0,102.0,101.0,13.4,1505.2,324.0,-0.8,1.9,2470.806,13.29,0.012,335.6
2022-09-09T20:43:03,42.805,6.029,0.016,0.001,-0.012,100.0,102.0,101.0,13.4,1505.2,323.8,-0.7,1.8,2470.806,13.29,0.016,86.4
2022-09-09T20:46:03,42.805,6.029,0.0,-0.001,-0.006,99.0,101.0,100.0,13.4,1505.2,322.3,-0.8,1.8,2470.829,13.29,0.001,180.0
2022-09-09T20:49:03,42.805,6.029,-0.014,0.012,-0.022,102.0,101.0,100.0,13.3,1505.2,326.6,-0.7,1.8,2470.844,13.29,0.018,310.6
2022-09-09T20:52:03,42.805,6.029,-0.016,0.015,-0.016,101.0,102.0,100.0,13.3,1505.2,325.9,-0.8,1.8,2470.838,13.29,0.021,313.1
2022-09-09T20:55:03,42.805,6.029,-0.032,0.016,-0.012,102.0,101.0,100.0,13.4,1505.2,331.2,-0.8,1.8,2470.792,13.29,0.035,296.6
2022-09-09T20:58:03,42.805,6.029,0.008,0.0,-0.024,101.0,102.0,103.0,13.4,1505.2,327.3,-0.7,1.8,2470.813,13.29,0.008,90.0
2022-09-09T21:04:03,42.805,6.029,0.005,0.011,0.012,101.0,101.0,101.0,13.4,1505.2,316.9,-0.8,1.8,2470.794,13.29,0.012,24.4
2022-09-09T21:07:03,42.805,6.029,-0.003,0.022,0.001,102.0,101.0,100.0,13.3,1505.2,320.4,-0.8,1.8,2470.831,13.29,0.022,352.2
2022-09-09T21:10:03,42.805,6.029,-0.002,0.004,-0.003,101.0,100.0,101.0,13.4,1505.2,321.7,-0.7,1.8,2470.795,13.29,0.004,333.4
2022-09-09T21:13:03,42.805,6.029,-0.003,0.031,0.026,102.0,103.0,100.0,13.3,1505.2,328.1,-0.8,1.8,2470.752,13.29,0.031,354.5
2022-09-09T21:16:03,42.805,6.029,-0.007,0.003,-0.007,102.0,102.0,102.0,13.4,1505.2,328.2,-0.7,1.8,2470.777,13.29,0.007,293.2
2022-09-09T21:19:03,42.805,6.029,0.0,0.006,-0.021,104.0,102.0,100.0,13.4,1505.2,328.1,-0.8,1.8,2470.751,13.29,0.006,0.0
2022-09-09T21:22:03,42.805,6.029,0.001,-0.025,-0.024,101.0,101.0,101.0,13.4,1505.2,333.7,-0.8,1.8,2470.729,13.29,0.025,177.7
2022-09-09T21:25:03,42.805,6.029,-0.002,0.012,0.015,101.0,101.0,101.0,13.4,1505.2,321.5,-0.8,1.8,2470.741,13.29,0.012,350.5
2022-09-09T21:28:03,42.805,6.029,-0.012,-0.002,-0.004,102.0,102.0,100.0,13.4,1505.2,326.4,-0.8,1.9,2470.748,13.29,0.012,260.5
2022-09-09T21:31:03,42.805,6.029,0.003,-0.001,-0.025,102.0,102.0,101.0,13.4,1505.2,329.8,-0.8,1.8,2470.771,13.29,0.003,108.4
2022-09-09T21:34:03,42.805,6.029,0.003,0.005,0.004,101.0,101.0,101.0,13.4,1505.2,326.4,-0.7,1.8,2470.758,13.29,0.005,31.0
2022-09-09T21:37:03,42.805,6.029,0.017,-0.004,-0.024,101.0,102.0,100.0,13.4,1505.2,319.2,-0.8,1.9,2470.734,13.29,0.017,103.2
2022-09-09T21:40:03,42.805,6.029,-0.008,0.019,0.013,101.0,101.0,101.0,13.4,1505.2,330.1,-0.7,1.8,2470.725,13.29,0.02,337.2
2022-09-09T21:43:03,42.805,6.029,-0.005,0.002,0.0,101.0,102.0,100.0,13.4,1505.2,330.1,-0.8,1.8,2470.746,13.29,0.005,291.8
2022-09-09T21:46:03,42.805,6.029,0.003,0.017,-0.02,102.0,102.0,101.0,13.4,1505.2,334.0,-0.7,1.8,2470.736,13.29,0.017,10.0
2022-09-09T21:49:03,42.805,6.029,-0.001,-0.014,-0.015,101.0,102.0,101.0,13.4,1505.2,323.1,-0.8,1.8,2470.714,13.29,0.014,184.1
2022-09-09T21:52:03,42.805,6.029,-0.004,0.002,-0.003,101.0,102.0,101.0,13.4,1505.2,333.7,-0.8,1.8,2470.708,13.29,0.004,296.6
2022-09-09T21:55:03,42.805,6.029,-0.001,-0.009,-0.034,101.0,103.0,100.0,13.4,1505.2,317.8,-0.7,1.8,2470.721,13.29,0.009,186.3
2022-09-09T21:58:03,42.805,6.029,0.006,0.005,-0.003,101.0,102.0,101.0,13.4,1505.2,326.3,-0.8,1.8,2470.699,13.29,0.007,50.2
2022-09-09T22:04:03,42.805,6.029,-0.008,0.003,-0.029,102.0,101.0,100.0,13.4,1505.2,323.2,-0.8,1.8,2470.707,13.28,0.008,290.6
2022-09-09T22:07:03,42.805,6.029,0.029,-0.028,-0.012,101.0,103.0,101.0,13.4,1505.2,321.8,-0.8,1.8,2470.726,13.29,0.04,134.0
2022-09-09T22:10:03,42.805,6.029,0.0,-0.008,-0.038,102.0,102.0,101.0,13.4,1505.2,324.5,-0.7,1.8,2470.711,13.29,0.008,180.0
2022-09-09T22:13:03,42.805,6.029,0.013,-0.029,-0.045,101.0,102.0,101.0,13.3,1505.2,329.3,-0.8,1.8,2470.704,13.29,0.031,155.9
2022-09-09T22:16:03,42.805,6.029,0.0,0.008,0.015,101.0,101.0,102.0,13.4,1505.2,326.0,-0.7,1.8,2470.727,13.29,0.008,0.0
2022-09-09T22:19:03,42.805,6.029,0.002,-0.003,-0.037,102.0,104.0,101.0,13.4,1505.2,328.0,-0.7,1.8,2470.707,13.29,0.003,146.3
2022-09-09T22:22:03,42.805,6.029,0.003,-0.005,-0.02,101.0,102.0,101.0,13.4,1505.2,329.8,-0.7,1.8,2470.663,13.29,0.005,149.0
2022-09-09T22:25:03,42.805,6.029,-0.016,-0.001,-0.018,101.0,102.0,100.0,13.4,1505.2,333.1,-0.8,1.8,2470.688,13.29,0.016,266.4
2022-09-09T22:28:03,42.805,6.029,-0.012,0.003,-0.029,102.0,102.0,101.0,13.4,1505.2,322.1,-0.8,1.8,2470.661,13.29,0.012,284.0
2022-09-09T22:31:03,42.805,6.029,0.03,-0.016,0.001,103.0,102.0,101.0,13.3,1505.2,323.0,-0.7,1.8,2470.61,13.29,0.034,118.1
2022-09-09T22:34:03,42.805,6.029,0.045,0.0,0.003,102.0,102.0,101.0,13.3,1505.2,328.0,-0.8,1.8,2470.64,13.29,0.045,90.0
2022-09-09T22:37:03,42.805,6.029,0.002,0.012,-0.009,102.0,102.0,101.0,13.4,1505.2,327.7,-0.8,1.8,2470.631,13.29,0.012,9.5
2022-09-09T22:40:03,42.805,6.029,0.009,-0.01,-0.017,102.0,101.0,101.0,13.4,1505.2,330.2,-0.7,1.8,2470.629,13.29,0.013,138.0
2022-09-09T22:43:03,42.805,6.029,0.0,-0.012,-0.041,102.0,102.0,101.0,13.3,1505.2,324.9,-0.8,1.8,2470.583,13.29,0.012,180.0
2022-09-09T22:46:03,42.805,6.029,0.013,-0.025,-0.049,102.0,102.0,101.0,13.3,1505.2,322.4,-0.8,1.8,2470.589,13.29,0.028,152.5
2022-09-09T22:49:03,42.805,6.029,0.016,-0.005,0.021,102.0,103.0,102.0,13.3,1505.2,329.6,-0.8,1.9,2470.568,13.29,0.016,107.4
2022-09-09T22:52:03,42.805,6.029,0.011,-0.004,-0.022,102.0,103.0,101.0,13.4,1505.2,327.4,-0.8,1.9,2470.614,13.29,0.011,110.0
2022-09-09T22:55:03,42.805,6.029,0.0,-0.01,-0.014,102.0,103.0,101.0,13.4,1505.2,332.2,-0.8,1.8,2470.536,13.29,0.01,180.0
2022-09-09T22:58:03,42.805,6.029,0.02,-0.006,-0.004,102.0,102.0,101.0,13.3,1505.2,328.2,-0.7,1.8,2470.55,13.29,0.02,106.7
2022-09-09T23:04:03,42.805,6.029,0.0,0.023,0.045,102.0,102.0,100.0,13.4,1505.2,324.2,-0.7,1.8,2470.568,13.28,0.023,0.0
2022-09-09T23:07:03,42.805,6.029,0.013,0.0,-0.026,101.0,102.0,101.0,13.4,1505.2,329.2,-0.8,1.8,2470.606,13.28,0.013,90.0
2022-09-09T23:10:03,42.805,6.029,-0.003,0.01,-0.001,103.0,103.0,100.0,13.3,1505.2,320.7,-0.7,1.8,2470.565,13.29,0.01,343.3
2022-09-09T23:13:03,42.805,6.029,0.012,-0.008,-0.036,101.0,103.0,102.0,13.4,1505.2,323.8,-0.8,1.8,2470.56,13.29,0.014,123.7
2022-09-09T23:16:03,42.805,6.029,0.011,-0.01,-0.014,104.0,101.0,100.0,13.4,1505.2,326.1,-0.8,1.8,2470.571,13.29,0.014,132.3
2022-09-09T23:19:03,42.805,6.029,0.017,0.017,-0.009,101.0,102.0,101.0,13.4,1505.2,316.6,-0.7,1.8,2470.518,13.29,0.024,45.0
2022-09-09T23:22:03,42.805,6.029,0.0,-0.001,-0.014,101.0,104.0,101.0,13.4,1505.2,326.6,-0.8,1.8,2470.548,13.29,0.001,180.0
2022-09-09T23:25:03,42.805,6.029,-0.003,0.003,0.011,102.0,101.0,102.0,13.3,1505.2,324.6,-0.8,1.8,2470.511,13.29,0.004,315.0
2022-09-09T23:28:03,42.805,6.029,-0.01,-0.002,-0.02,102.0,101.0,101.0,13.3,1505.2,322.8,-0.8,1.9,2470.502,13.29,0.01,258.7
2022-09-09T23:31:03,42.805,6.029,0.021,-0.001,-0.002,102.0,103.0,101.0,13.3,1505.2,322.8,-0.8,1.8,2470.503,13.29,0.021,92.7
2022-09-09T23:34:03,42.805,6.029,-0.005,-0.018,-0.034,102.0,102.0,101.0,13.4,1505.2,319.8,-0.7,1.8,2470.501,13.29,0.018,195.5
2022-09-09T23:37:03,42.805,6.029,-0.004,0.026,-0.017,102.0,101.0,101.0,13.3,1505.2,333.9,-0.8,1.8,2470.493,13.29,0.026,351.3
2022-09-09T23:40:03,42.805,6.029,0.014,-0.016,-0.001,101.0,101.0,100.0,13.4,1505.2,325.0,-0.8,1.8,2470.509,13.29,0.021,138.8
2022-09-09T23:43:03,42.805,6.029,-0.018,-0.004,-0.021,101.0,102.0,101.0,13.4,1505.2,324.4,-0.8,1.8,2470.481,13.29,0.018,257.5
2022-09-09T23:46:03,42.805,6.029,-0.004,0.0,-0.002,101.0,103.0,101.0,13.4,1505.2,328.5,-0.7,1.8,2470.489,13.29,0.004,270.0
2022-09-09T23:49:03,42.805,6.029,-0.021,0.009,-0.025,102.0,101.0,101.0,13.3,1505.2,321.9,-0.8,1.8,2470.478,13.29,0.022,293.2
2022-09-09T23:52:03,42.805,6.029,-0.005,0.0,-0.027,101.0,102.0,101.0,13.4,1505.2,329.8,-0.7,1.8,2470.451,13.29,0.005,270.0
2022-09-09T23:55:03,42.805,6.029,0.032,0.005,0.054,102.0,101.0,101.0,13.4,1505.2,325.0,-0.8,1.8,2470.446,13.29,0.032,81.1
2022-09-09T23:58:03,42.805,6.029,0.0,-0.016,-0.022,101.0,101.0,100.0,13.4,1505.2,332.0,-0.8,1.8,2470.444,13.29,0.016,180.0
